• In Belarus
  • List of Countries
  • For 7 days
  • Water Temperature
  • Satellite Maps
  • Weather Map
  • Weather Widgets
  • user-avatar
    Login

    Hourly Weather Egorevskoe

    Today, 19 June, Tuesday

    Time Temperature Precipitation Wind Pressure Humidity
    00:00 +18°C° 0 mm 2 mps 747 mmHg 78%
    01:00 +17°C° 0 mm 2 mps 747 mmHg 81%
    02:00 +16°C° 0 mm 2 mps 747 mmHg 84%
    03:00 +16°C° 0 mm 2 mps 747 mmHg 87%
    04:00 +17°C° 0 mm 2 mps 747 mmHg 87%
    05:00 +17°C° 0 mm 2 mps 747 mmHg 86%
    06:00 +18°C° 0 mm 2 mps 747 mmHg 85%
    07:00 +19°C° 0 mm 2 mps 747 mmHg 82%
    08:00 +21°C° 0 mm 2 mps 747 mmHg 78%
    09:00 +22°C° 0 mm 3 mps 746 mmHg 74%
    10:00 +24°C° 0.1 mm 3 mps 746 mmHg 68%
    11:00 +26°C° 0.1 mm 3 mps 746 mmHg 62%
    12:00 +27°C° 0.1 mm 3 mps 745 mmHg 56%
    13:00 +27°C° 0.1 mm 3 mps 745 mmHg 55%
    14:00 +27°C° 0.1 mm 4 mps 745 mmHg 54%
    15:00 +27°C° 0.1 mm 4 mps 745 mmHg 53%
    16:00 +26°C° 0.3 mm 3 mps 744 mmHg 58%
    17:00 +26°C° 0.3 mm 3 mps 744 mmHg 62%
    18:00 +25°C° 0.3 mm 3 mps 743 mmHg 67%
    19:00 +22°C° 0.1 mm 3 mps 743 mmHg 72%
    20:00 +21°C° 0.1 mm 3 mps 743 mmHg 76%
    21:00 +19°C° 0.1 mm 3 mps 743 mmHg 81%
    22:00 +18°C° 0 mm 3 mps 742 mmHg 81%
    23:00 +18°C° 0 mm 3 mps 742 mmHg 81%

    Tomorrow, 20 June, Wednesday

    Time Temperature Precipitation Wind Pressure Humidity
    00:00 +17°C° 0 mm 4 mps 742 mmHg 81%
    01:00 +15°C° 0.1 mm 4 mps 742 mmHg 83%
    02:00 +15°C° 0.1 mm 5 mps 742 mmHg 86%
    03:00 +15°C° 0.1 mm 5 mps 742 mmHg 89%
    04:00 +14°C° 0.1 mm 5 mps 743 mmHg 88%
    05:00 +13°C° 0.1 mm 5 mps 743 mmHg 88%
    06:00 +12°C° 0.1 mm 5 mps 744 mmHg 87%
    07:00 +14°C° 0 mm 6 mps 744 mmHg 78%
    08:00 +15°C° 0 mm 6 mps 744 mmHg 68%
    09:00 +16°C° 0 mm 6 mps 744 mmHg 58%
    10:00 +17°C° 0 mm 6 mps 744 mmHg 54%
    11:00 +20°C° 0 mm 6 mps 744 mmHg 49%
    12:00 +21°C° 0 mm 6 mps 744 mmHg 45%
    13:00 +21°C° 0 mm 6 mps 744 mmHg 44%
    14:00 +22°C° 0 mm 6 mps 744 mmHg 43%
    15:00 +22°C° 0 mm 6 mps 744 mmHg 42%
    16:00 +22°C° 0 mm 6 mps 744 mmHg 46%
    17:00 +21°C° 0 mm 5 mps 744 mmHg 49%
    18:00 +21°C° 0 mm 5 mps 744 mmHg 52%
    19:00 +20°C° 0 mm 4 mps 744 mmHg 55%
    20:00 +18°C° 0 mm 3 mps 744 mmHg 58%
    21:00 +17°C° 0 mm 2 mps 745 mmHg 62%
    22:00 +16°C° 0 mm 2 mps 745 mmHg 64%
    23:00 +15°C° 0 mm 2 mps 745 mmHg 67%

    Day after tomorrow, 21 June, Thursday

    Time Temperature Precipitation Wind Pressure Humidity
    00:00 +14°C° 0 mm 2 mps 745 mmHg 69%
    01:00 +13°C° 0 mm 2 mps 745 mmHg 74%
    02:00 +12°C° 0 mm 2 mps 746 mmHg 78%
    03:00 +10°C° 0 mm 2 mps 746 mmHg 83%
    04:00 +12°C° 0 mm 2 mps 746 mmHg 80%
    05:00 +12°C° 0 mm 3 mps 746 mmHg 78%
    06:00 +12°C° 0 mm 3 mps 746 mmHg 75%
    07:00 +14°C° 0 mm 3 mps 746 mmHg 69%
    08:00 +16°C° 0 mm 3 mps 746 mmHg 62%
    09:00 +18°C° 0 mm 4 mps 746 mmHg 56%
    10:00 +18°C° 0 mm 4 mps 746 mmHg 56%
    11:00 +18°C° 0 mm 4 mps 746 mmHg 57%
    12:00 +18°C° 0 mm 4 mps 746 mmHg 57%
    13:00 +19°C° 0 mm 4 mps 746 mmHg 57%
    14:00 +20°C° 0 mm 4 mps 745 mmHg 56%
    15:00 +21°C° 0 mm 4 mps 745 mmHg 55%
    16:00 +21°C° 0 mm 4 mps 745 mmHg 60%
    17:00 +20°C° 0 mm 3 mps 745 mmHg 65%
    18:00 +20°C° 0 mm 3 mps 745 mmHg 70%
    19:00 +19°C° 0 mm 2 mps 745 mmHg 76%
    20:00 +18°C° 0 mm 2 mps 745 mmHg 81%
    21:00 +18°C° 0 mm 1 mps 745 mmHg 87%
    22:00 +16°C° 0 mm 1 mps 746 mmHg 89%
    23:00 +16°C° 0 mm 2 mps 746 mmHg 91%

    22 June, Friday

    Time Temperature Precipitation Wind Pressure Humidity
    00:00 +15°C° 0 mm 2 mps 746 mmHg 93%
    01:00 +15°C° 0 mm 2 mps 745 mmHg 93%
    02:00 +15°C° 0 mm 2 mps 745 mmHg 94%
    03:00 +14°C° 0 mm 3 mps 745 mmHg 94%
    04:00 +16°C° 0 mm 3 mps 745 mmHg 91%
    05:00 +17°C° 0 mm 3 mps 745 mmHg 89%
    06:00 +18°C° 0 mm 4 mps 744 mmHg 86%
    07:00 +20°C° 0 mm 4 mps 744 mmHg 79%
    08:00 +21°C° 0 mm 5 mps 744 mmHg 71%
    09:00 +23°C° 0 mm 6 mps 744 mmHg 64%
    10:00 +24°C° 0 mm 6 mps 743 mmHg 60%
    11:00 +26°C° 0 mm 6 mps 743 mmHg 57%
    12:00 +27°C° 0 mm 6 mps 743 mmHg 53%
    13:00 +28°C° 0 mm 6 mps 743 mmHg 52%
    14:00 +28°C° 0 mm 6 mps 742 mmHg 51%
    15:00 +29°C° 0 mm 6 mps 742 mmHg 51%
    16:00 +28°C° 0 mm 6 mps 742 mmHg 54%
    17:00 +28°C° 0 mm 5 mps 741 mmHg 57%
    18:00 +28°C° 0 mm 5 mps 741 mmHg 60%
    19:00 +26°C° 0.1 mm 5 mps 741 mmHg 65%
    20:00 +25°C° 0.1 mm 5 mps 741 mmHg 70%
    21:00 +22°C° 0.1 mm 5 mps 741 mmHg 76%
    22:00 +21°C° 0.2 mm 4 mps 741 mmHg 80%
    23:00 +20°C° 0.2 mm 3 mps 742 mmHg 85%

    23 June, Saturday

    Time Temperature Precipitation Wind Pressure Humidity
    00:00 +19°C° 0.2 mm 2 mps 742 mmHg 90%
    01:00 +18°C° 0.1 mm 2 mps 742 mmHg 92%
    02:00 +18°C° 0.1 mm 2 mps 742 mmHg 94%
    03:00 +17°C° 0.1 mm 2 mps 742 mmHg 97%
    04:00 +18°C° 0.3 mm 1 mps 742 mmHg 96%
    05:00 +18°C° 0.3 mm 1 mps 742 mmHg 96%
    06:00 +18°C° 0.3 mm 1 mps 742 mmHg 95%
    07:00 +18°C° 0.8 mm 1 mps 742 mmHg 95%
    08:00 +17°C° 0.8 mm 2 mps 742 mmHg 96%
    09:00 +17°C° 0.8 mm 2 mps 742 mmHg 96%
    10:00 +17°C° 0.9 mm 2 mps 743 mmHg 96%
    11:00 +16°C° 0.9 mm 2 mps 743 mmHg 96%
    12:00 +16°C° 0.9 mm 2 mps 743 mmHg 96%
    13:00 +16°C° 0.3 mm 2 mps 743 mmHg 96%
    14:00 +16°C° 0.3 mm 2 mps 743 mmHg 95%
    15:00 +16°C° 0.3 mm 2 mps 743 mmHg 95%
    16:00 +15°C° 0.1 mm 2 mps 743 mmHg 95%
    17:00 +15°C° 0.1 mm 2 mps 744 mmHg 94%
    18:00 +15°C° 0.1 mm 2 mps 744 mmHg 93%
    19:00 +15°C° 0.1 mm 2 mps 743 mmHg 94%
    20:00 +15°C° 0.1 mm 2 mps 743 mmHg 95%
    21:00 +14°C° 0.1 mm 1 mps 743 mmHg 95%
    22:00 +14°C° 0.1 mm 2 mps 743 mmHg 95%
    23:00 +14°C° 0.1 mm 2 mps 743 mmHg 96%

    24 June, Sunday

    Time Temperature Precipitation Wind Pressure Humidity
    00:00 +13°C° 0.1 mm 2 mps 743 mmHg 96%
    01:00 +13°C° 0.2 mm 2 mps 743 mmHg 96%
    02:00 +13°C° 0.2 mm 2 mps 743 mmHg 96%
    03:00 +13°C° 0.2 mm 2 mps 743 mmHg 96%
    04:00 +13°C° 0.3 mm 2 mps 744 mmHg 96%
    05:00 +13°C° 0.3 mm 2 mps 744 mmHg 96%
    06:00 +13°C° 0.3 mm 2 mps 744 mmHg 97%
    07:00 +13°C° 0.2 mm 2 mps 744 mmHg 94%
    08:00 +14°C° 0.2 mm 2 mps 744 mmHg 92%
    09:00 +15°C° 0.2 mm 2 mps 744 mmHg 89%
    10:00 +16°C° 0 mm 2 mps 745 mmHg 79%
    11:00 +18°C° 0 mm 2 mps 745 mmHg 70%
    12:00 +20°C° 0 mm 3 mps 745 mmHg 60%
    13:00 +21°C° 0.1 mm 3 mps 746 mmHg 58%
    14:00 +21°C° 0.1 mm 3 mps 746 mmHg 55%
    15:00 +22°C° 0.1 mm 4 mps 746 mmHg 53%
    16:00 +22°C° 0.1 mm 3 mps 746 mmHg 55%
    17:00 +21°C° 0.1 mm 3 mps 746 mmHg 58%
    18:00 +21°C° 0.1 mm 3 mps 746 mmHg 61%
    19:00 +19°C° 0.1 mm 3 mps 747 mmHg 67%
    20:00 +17°C° 0.1 mm 2 mps 747 mmHg 74%
    21:00 +16°C° 0.1 mm 2 mps 747 mmHg 80%
    22:00 +14°C° 0 mm 2 mps 747 mmHg 84%
    23:00 +13°C° 0 mm 2 mps 748 mmHg 88%
    Show more